• Join FlightAware (Why Join?)
  • Login
  • US Flag 
03:07PM EDT


 

Airport Tracker/Info


-or-


 

Live Flight TrackerFlight Track Log ✈ TAM3890 ✈ 18-Aug-2013 ✈ SBSV / SSA - SBRF / REC

Flight Track Log - Related Links

Times and Time Zones

All times are in EDT time to prevent confusion due to time zone crossing. See the TAM3890 flight status page for this flight to view local times or setup timezone preferences in your user account.

Time Position Orientation Groundspeed Altitude Reporting Facility
EDT Latitude Longitude Course Direction KTS MPH feet Rate Location/Type
05:06AM -12.9140 -38.3330 168° South  Level FlightAware
05:09AM -12.7180 -38.1913 35° Northeast  Level Estimated
05:10AM -12.6314 -38.1284 35° Northeast  Level Estimated
05:11AM -12.5447 -38.0656 35° Northeast  Level Estimated
05:12AM -12.4580 -38.0028 35° Northeast  Level Estimated
05:13AM -12.3713 -37.9400 35° Northeast  Level Estimated
05:14AM -12.2845 -37.8773 35° Northeast  Level Estimated
05:15AM -12.1978 -37.8146 35° Northeast  Level Estimated
05:16AM -12.1110 -37.7519 35° Northeast  Level Estimated
05:17AM -12.0243 -37.6893 35° Northeast  Level Estimated
05:18AM -11.9375 -37.6267 35° Northeast  Level Estimated
05:19AM -11.8507 -37.5642 35° Northeast  Level Estimated
05:20AM -11.7639 -37.5017 35° Northeast  Level Estimated
05:21AM -11.6770 -37.4393 35° Northeast  Level Estimated
05:24AM -12.9100 -38.3300 78° East 92 106  Level FlightAware
05:25AM -12.9080 -38.3180 80° East 160 184 1,020 Level FlightAware
05:25AM -12.9050 -38.3040 78° East 160 184 700 1,740 Climbing FlightAware
05:25AM -12.9020 -38.2860 80° East 182 209 1,200 1,200 Climbing FlightAware
05:26AM -12.8970 -38.2630 77° East 219 252 1,600 1,140 Climbing FlightAware
05:26AM -12.8920 -38.2510 67° East 242 278 1,900 1,500 Climbing FlightAware
05:26AM -12.8860 -38.2440 49° Northeast 255 293 2,100 2,520 Climbing FlightAware
05:26AM -12.8690 -38.2250 47° Northeast 268 308 3,100 3,120 Climbing FlightAware
05:27AM -12.8560 -38.2110 46° Northeast 265 305 4,000 3,000 Climbing FlightAware
05:27AM -12.8380 -38.1930 44° Northeast 275 316 4,900 2,820 Climbing FlightAware
05:27AM -12.8160 -38.1700 46° Northeast 280 322 6,100 3,000 Climbing FlightAware
05:28AM -12.7980 -38.1510 46° Northeast 284 327 7,100 3,060 Climbing FlightAware
05:28AM -12.7820 -38.1340 46° Northeast 284 327 8,000 3,060 Climbing FlightAware
05:28AM -12.7610 -38.1110 47° Northeast 287 330 9,200 2,760 Climbing FlightAware
05:29AM -12.7460 -38.0950 46° Northeast 292 336 9,800 1,980 Climbing FlightAware
05:29AM -12.7150 -38.0610 47° Northeast 318 366 10,800 2,340 Climbing FlightAware
05:30AM -12.6790 -38.0220 47° Northeast 319 367 12,500 2,760 Climbing FlightAware
05:30AM -12.6420 -37.9830 46° Northeast 316 364 14,100 1,620 Climbing FlightAware
05:31AM -12.6040 -37.9420 46° Northeast 351 404 14,500 720 Climbing FlightAware
05:32AM -12.5560 -37.9080 35° Northeast 376 433 15,000 1,440 Climbing FlightAware
05:32AM -12.5020 -37.8770 29° Northeast 381 438 16,200 1,980 Climbing FlightAware
05:33AM -12.4450 -37.8430 30° Northeast 385 443 17,400 1,980 Climbing FlightAware
05:33AM -12.3970 -37.8150 30° Northeast 384 442 18,500 1,620 Climbing FlightAware
05:34AM -12.3420 -37.7830 30° Northeast 397 457 19,200 1,620 Climbing FlightAware
05:34AM -12.2810 -37.7470 30° Northeast 396 456 20,500 1,800 Climbing FlightAware
05:35AM -12.2290 -37.7170 29° Northeast 396 456 21,400 1,200 Climbing FlightAware
05:36AM -12.1690 -37.6810 30° Northeast 412 474 21,900 900 Climbing FlightAware
05:36AM -12.1080 -37.6450 30° Northeast 422 486 22,500 1,200 Climbing FlightAware
05:37AM -12.0530 -37.6130 30° Northeast 424 488 23,300 1,500 Climbing FlightAware
05:37AM -11.9910 -37.5770 30° Northeast 426 490 24,200 1,140 Climbing FlightAware
05:38AM -11.9410 -37.5470 30° Northeast 433 498 24,600 900 Climbing FlightAware
05:39AM -11.8730 -37.5070 30° Northeast 441 507 25,300 1,080 Climbing FlightAware
05:39AM -11.8080 -37.4690 30° Northeast 447 514 26,000 1,140 Climbing FlightAware
05:40AM -11.7430 -37.4310 30° Northeast 450 518 26,700 1,140 Climbing FlightAware
05:40AM -11.6770 -37.3920 30° Northeast 451 519 27,400 1,200 Climbing FlightAware
05:41AM -11.6180 -37.3580 29° Northeast 453 521 28,100 960 Climbing FlightAware
05:41AM -11.5540 -37.3210 30° Northeast 462 532 28,500 960 Climbing FlightAware
05:42AM -11.4930 -37.2840 31° Northeast 461 531 29,200 1,200 Climbing FlightAware
05:43AM -11.4280 -37.2460 30° Northeast 461 531 29,900 1,260 Climbing FlightAware
05:43AM -11.3610 -37.2070 30° Northeast 458 527 30,700 1,260 Climbing FlightAware
05:44AM -11.2800 -37.1600 30° Northeast 458 527 31,600 1,020 Climbing FlightAware
05:45AM -11.2150 -37.1220 30° Northeast 459 528 32,100 840 Climbing FlightAware
05:45AM -11.1550 -37.0870 30° Northeast 462 532 32,600 900 Climbing FlightAware
05:46AM -11.1040 -37.0570 30° Northeast 461 531 33,000 300 Climbing FlightAware
05:46AM -11.0200 -37.0080 30° Northeast 458 527 33,000  Level FlightAware
05:47AM -10.9590 -36.9720 30° Northeast 458 527 33,000  Level FlightAware
05:47AM -10.8910 -36.9330 29° Northeast 458 527 33,000  Level FlightAware
05:48AM -10.8390 -36.9030 30° Northeast 459 528 33,000  Level FlightAware
05:49AM -10.7710 -36.8630 30° Northeast 459 528 33,000  Level FlightAware
05:49AM -10.7010 -36.8230 29° Northeast 459 528 33,000  Level FlightAware
05:50AM -10.6320 -36.7830 30° Northeast 460 529 33,000  Level FlightAware
05:50AM -10.5720 -36.7480 30° Northeast 460 529 33,000  Level FlightAware
05:51AM -10.5090 -36.7120 29° Northeast 460 529 33,000  Level FlightAware
05:52AM -10.4190 -36.6590 30° Northeast 457 526 33,000  Level FlightAware
05:53AM -10.3220 -36.6030 30° Northeast 457 526 33,000  Level FlightAware
05:53AM -10.2420 -36.5560 30° Northeast 457 526 33,000  Level FlightAware
05:54AM -10.1770 -36.5200 29° Northeast 457 526 33,000  Level FlightAware
05:55AM -10.1240 -36.4890 30° Northeast 457 526 33,000  Level FlightAware
05:55AM -10.0670 -36.4580 28° Northeast 457 526 33,000  Level FlightAware
05:56AM -10.0110 -36.4260 29° Northeast 457 526 33,000  Level FlightAware
05:56AM -9.9540 -36.3940 29° Northeast 457 526 33,000  Level FlightAware
05:57AM -9.8980 -36.3620 29° Northeast 457 526 33,000  Level FlightAware
05:58AM -9.8410 -36.3300 29° Northeast 457 526 33,000  Level FlightAware
05:58AM -9.7840 -36.2980 29° Northeast 457 526 33,000  Level FlightAware
05:59AM -9.6560 -36.2170 32° Northeast 304 350 33,000  Level FlightAware
05:59AM -9.5900 -36.1800 29° Northeast 457 526 33,000  Level FlightAware
06:00AM -9.5340 -36.1480 29° Northeast 457 526 33,000 -600 Level FlightAware
06:00AM -9.4620 -36.1060 30° Northeast 456 525 32,400 -600 Descending FlightAware
06:01AM -9.4050 -36.0740 29° Northeast 456 525 32,400  Level FlightAware
06:02AM -9.3490 -36.0420 29° Northeast 456 525 32,400 -2,040 Level FlightAware
06:03AM -9.1930 -35.9500 30° Northeast 28,400 -2,520 Descending FlightAware
06:04AM -9.0770 -35.8830 30° Northeast 26,200 -1,920 Descending FlightAware
06:05AM -9.0300 -35.8560 30° Northeast 401 461 25,300 -2,340 Descending FlightAware
06:05AM -8.9560 -35.8110 31° Northeast 399 459 23,300 -2,640 Descending FlightAware
06:06AM -8.9010 -35.7690 37° Northeast 405 466 21,700 -2,280 Descending FlightAware
06:06AM -8.8470 -35.7280 37° Northeast 393 452 20,500 -1,980 Descending FlightAware
06:07AM -8.8100 -35.7000 37° Northeast 385 443 19,700 -1,800 Descending FlightAware
06:07AM -8.7570 -35.6600 37° Northeast 374 430 18,700 -1,620 Descending FlightAware
06:08AM -8.7140 -35.6270 37° Northeast 366 421 17,800 -1,740 Descending FlightAware
06:09AM -8.6630 -35.5890 36° Northeast 356 410 16,700 -1,740 Descending FlightAware
06:09AM -8.6180 -35.5550 37° Northeast 347 399 15,800 -1,500 Descending FlightAware
06:10AM -8.5590 -35.5090 38° Northeast 346 398 14,600 -1,500 Descending FlightAware
06:11AM -8.5160 -35.4770 36° Northeast 344 396 13,700 -1,740 Descending FlightAware
06:11AM -8.4630 -35.4370 37° Northeast 342 394 12,500 -1,740 Descending FlightAware
06:12AM -8.4100 -35.3970 37° Northeast 339 390 11,500 -1,620 Descending FlightAware
06:13AM -8.3710 -35.3670 37° Northeast 335 386 10,600 -1,320 Descending FlightAware
06:13AM -8.3310 -35.3370 37° Northeast 320 368 10,100 -900 Descending FlightAware
06:13AM -8.3040 -35.3170 36° Northeast 302 348 9,800 -1,260 Descending FlightAware
06:14AM -8.2770 -35.2960 38° Northeast 298 343 9,100 -1,620 Descending FlightAware
06:14AM -8.2580 -35.2810 38° Northeast 295 339 8,700 -1,500 Descending FlightAware
06:15AM -8.2330 -35.2630 35° Northeast 293 337 8,100 -1,680 Descending FlightAware
06:15AM -8.2140 -35.2490 36° Northeast 292 336 7,600 -1,500 Descending FlightAware
06:15AM -8.2020 -35.2390 40° Northeast 290 334 7,300 -1,620 Descending FlightAware
06:15AM -8.1710 -35.2160 36° Northeast 290 334 6,500 -1,740 Descending FlightAware
06:16AM -8.1530 -35.2020 38° Northeast 287 330 6,100 -1,680 Descending FlightAware
06:16AM -8.1330 -35.1870 37° Northeast 286 329 5,500 -1,560 Descending FlightAware
06:16AM -8.1090 -35.1690 37° Northeast 286 329 5,000 -1,500 Descending FlightAware
06:17AM -8.0890 -35.1540 37° Northeast 285 328 4,500 -1,680 Descending FlightAware
06:17AM -8.0650 -35.1360 37° Northeast 279 321 3,900 -1,260 Descending FlightAware
06:18AM -8.0400 -35.1170 37° Northeast 275 316 3,500 -780 Descending FlightAware
06:18AM -8.0230 -35.1040 37° Northeast 263 303 3,400 -240 Descending FlightAware
06:18AM -8.0090 -35.0930 38° Northeast 245 282 3,400  Level FlightAware
06:19AM -7.9870 -35.0760 37° Northeast 234 269 3,400 -300 Level FlightAware
06:19AM -7.9800 -35.0600 66° East 222 255 3,200 -780 Descending FlightAware
06:19AM -7.9730 -35.0370 73° East 211 243 2,900 -600 Descending FlightAware
06:19AM -7.9690 -35.0260 70° East 201 231 2,800 -480 Descending FlightAware
06:20AM -7.9620 -35.0030 73° East 176 203 2,600 -540 Descending FlightAware
06:20AM -7.9580 -34.9870 76° East 164 189 2,400 -420 Descending FlightAware
06:21AM -7.9700 -34.9760 138° Southeast 133 153 2,300 -240 Descending FlightAware
06:21AM -7.9750 -34.9740 158° South 133 153 2,300 -240 Level FlightAware
06:21AM -7.9870 -34.9700 162° South 133 153 2,200 -180 Descending FlightAware
06:21AM -7.9940 -34.9670 157° South 131 151 2,200 -240 Level FlightAware
06:22AM -8.0050 -34.9630 160° South 134 154 2,100 -540 Descending FlightAware
06:22AM -8.0170 -34.9590 162° South 133 153 1,900 -720 Descending FlightAware
06:22AM -8.0300 -34.9550 163° South 132 152 1,600 -780 Descending FlightAware
06:23AM -8.0420 -34.9510 162° South 133 153 1,400 -600 Descending FlightAware
06:23AM -8.0540 -34.9470 162° South 132 152 1,200 -660 Descending FlightAware
06:24AM -8.0690 -34.9420 162° South 132 152 900 -720 Descending FlightAware
06:24AM -8.0780 -34.9390 162° South 130 150 700 -840 Descending FlightAware
06:24AM -8.0920 -34.9350 164° South 131 151 400 -780 Descending FlightAware
06:24AM -8.1020 -34.9310 158° South 131 151 200 -600 Descending FlightAware
06:25AM -8.1130 -34.9280 165° South 133 153 -780 Descending FlightAware
06:25AM -8.1250 -34.9240 162° South 131 151  Level FlightAware
06:26AM -8.1310 -34.9220 162° South 131 151  Level FlightAware
06:26AM -8.1240 -34.9100 59° Northeast 131 151  Level FlightAware
06:29AM -8.1268 -34.9230 258° West  Level Estimated
06:30AM -8.1268 -34.9230 166° South  Level Estimated
06:31AM -8.1268 -34.9230 166° South  Level Estimated
06:32AM -8.1268 -34.9230 166° South  Level Estimated
06:33AM -8.1268 -34.9230 166° South  Level Estimated
06:34AM -8.1268 -34.9230 166° South  Level Estimated
06:35AM -8.1268 -34.9230 166° South  Level Estimated
06:36AM -8.1268 -34.9230 166° South  Level Estimated
06:37AM -8.1268 -34.9230 166° South  Level Estimated
06:38AM -8.1268 -34.9230 166° South  Level Estimated
06:39AM -8.1268 -34.9230 166° South  Level Estimated
06:40AM -8.1268 -34.9230 166° South  Level Estimated
06:41AM -8.1268 -34.9230 166° South  Level Estimated
06:42AM -8.1268 -34.9230 166° South  Level Estimated
06:43AM -8.1268 -34.9230 166° South  Level Estimated
06:44AM -8.1268 -34.9230 166° South  Level Estimated
06:45AM -8.1268 -34.9230 166° South  Level Estimated
06:46AM -8.1268 -34.9230 166° South  Level Estimated